Kinloss, United Kingdom

3:40 PM GMT on February 20, 2017 (GMT +0000)
Kinloss Air Base

Weather History for EGQK - March, 2013

Change the Weather History Date:

Sunday, March 3, 2013

  Actual Average Record
Temperature  
Mean Temperature 46 °F -  
Max Temperature 50 °F 47 °F 51 °F (2002)
Min Temperature 41 °F 35 °F 23 °F (2001)
Degree Days  
Heating Degree Days 20    
Moisture  
Dew Point 39 °F    
Average Humidity 83    
Maximum Humidity 93    
Minimum Humidity 66    
Precipitation  
Precipitation 0.02 in 0.06 in - ()
Sea Level Pressure  
Sea Level Pressure 30.14 in    
Wind  
Wind Speed 4 mph ()    
Max Wind Speed 7 mph    
Max Gust Speed -    
Visibility 5.8 miles    
Events Rain    
Averages and records for this station are not official NWS values.
T = Trace of Precipitation, MM = Missing Value Source: Averaged Metar Reports

Daily Weather History Graph

Daily Weather History Graph

Search for Another Location

Airport or City:

Trip Planner

Search our weather history database for the weather conditions in past years. The results will help you decide how hot, cold, wet, or windy it might be!

Date:

Astronomy

Mar. 03, 2013 Rise Set
Actual Time 7:02 AM GMT 5:50 PM GMT
Civil Twilight 6:23 AM GMT 6:29 PM GMT
Nautical Twilight 5:39 AM GMT 7:14 PM GMT
Astronomical Twilight 4:53 AM GMT 8:00 PM GMT
Moon 12:31 AM GMT (3/3) 8:44 AM GMT (3/3)
Length of Visible Light 12h 05m
Length of Day
10h 47m
Waning Gibbous, 66% of the Moon is Illuminated
Mar 3
Waning Gibbous
Mar 4
Last Quarter
Mar 11
New
Mar 19
First Quarter
Mar 27
Full

Hourly Weather History & Observations

Time (GMT) Temp. Windchill Dew Point Humidity Pressure Visibility Wind Dir Wind Speed Gust Speed Precip Events Conditions
12:50 AM 41.0 °F 39.0 °F 39.2 °F 93% 30.24 in 6.2 mi SW 3.5 mph - N/A   Mostly Cloudy
1:50 AM 42.8 °F 41.1 °F 39.2 °F 87% 30.24 in 6.2 mi SSW 3.5 mph - N/A   Mostly Cloudy
2:50 AM 42 °F - 38 °F 81% 30.24 in 44 mi SSW 4.6 mph - -   Partly Cloudy
2:50 AM 41.0 °F 38.0 °F 37.4 °F 87% 30.21 in 6.2 mi SSW 4.6 mph - N/A   Mostly Cloudy
3:50 AM 41.0 °F 38.0 °F 39.2 °F 93% 30.21 in 6.2 mi South 4.6 mph - N/A   Mostly Cloudy
4:50 AM 41.0 °F 39.0 °F 39.2 °F 93% 30.21 in 6.2 mi South 3.5 mph - N/A   Mostly Cloudy
5:50 AM 41 °F - 39 °F 90% 30.22 in 3 mi SSE 1.2 mph - - Rain Drizzle
5:50 AM 41.0 °F - 39.2 °F 93% 30.21 in 3.1 mi SSE 1.2 mph - N/A   Drizzle
6:50 AM 41.0 °F - 39.2 °F 93% 30.21 in 4.3 mi South 2.3 mph - N/A   Light Drizzle
7:50 AM 41.0 °F - 39.2 °F 93% 30.21 in 6.2 mi SE 2.3 mph - N/A   Mostly Cloudy
8:50 AM 42 °F - 40 °F 90% 30.20 in 37 mi South 2.3 mph - -   Mostly Cloudy
8:50 AM 42.8 °F - 41.0 °F 93% 30.18 in 6.2 mi South 2.3 mph - N/A   Mostly Cloudy
9:50 AM 44.6 °F 42.2 °F 41.0 °F 87% 30.18 in 6.2 mi SW 4.6 mph - N/A   Mostly Cloudy
10:50 AM 46.4 °F 43.5 °F 39.2 °F 76% 30.18 in 6.2 mi SW 5.8 mph - N/A   Mostly Cloudy
11:50 AM 46 °F - 40 °F 74% 30.18 in 40 mi North 6.9 mph - -   Mostly Cloudy
11:50 AM 46.4 °F 42.9 °F 41.0 °F 81% 30.15 in 6.2 mi North 6.9 mph - N/A   Mostly Cloudy
12:50 PM 46.4 °F 45.2 °F 37.4 °F 71% 30.15 in 6.2 mi North 3.5 mph - N/A   Mostly Cloudy
1:50 PM 48.2 °F - 39.2 °F 71% 30.12 in 6.2 mi North 3.5 mph - N/A   Mostly Cloudy
2:50 PM 48 °F - 40 °F 66% 30.12 in 47 mi NE 4.6 mph - -   Scattered Clouds
2:50 PM 48.2 °F - 41.0 °F 76% 30.09 in 6.2 mi NE 4.6 mph - N/A   Overcast
3:50 PM 46.4 °F 45.2 °F 41.0 °F 81% 30.09 in 5.0 mi NE 3.5 mph - N/A Rain Rain Showers
4:50 PM 46.4 °F 44.3 °F 41.0 °F 81% 30.09 in 6.2 mi East 4.6 mph - N/A   Overcast
5:50 PM 45 °F - 40 °F 78% 30.09 in 31 mi East 4.6 mph - -   Overcast
5:50 PM 44.6 °F 42.2 °F 41.0 °F 87% 30.06 in 6.2 mi East 4.6 mph - N/A   Overcast
6:50 PM 44.6 °F 42.2 °F 42.8 °F 93% 30.06 in 6.2 mi SW 4.6 mph - N/A   Mostly Cloudy
7:50 PM 44.6 °F - 41.0 °F 87% 30.06 in 6.2 mi SW 2.3 mph - N/A   Mostly Cloudy
8:50 PM 45 °F - 40 °F 76% 30.09 in - South 4.6 mph - -   Partly Cloudy
8:50 PM 44.6 °F 42.2 °F 39.2 °F 81% 30.06 in - South 4.6 mph - N/A   Mostly Cloudy
9:50 PM 44.6 °F 41.4 °F 39.2 °F 81% 30.06 in 6.2 mi SSW 5.8 mph - N/A   Mostly Cloudy
10:50 PM 44.6 °F 41.4 °F 35.6 °F 71% 30.06 in 6.2 mi SSW 5.8 mph - N/A   Mostly Cloudy
11:50 PM 43 °F - 36 °F 69% 30.07 in 47 mi SSW 5.8 mph - - Rain Rain
11:50 PM 42.8 °F 39.3 °F 35.6 °F 76% 30.06 in 6.2 mi SSW 5.8 mph - N/A   Mostly Cloudy